Weather History for KE11 - January, 2013

Change the Weather History Date:

Wednesday, January 9, 2013

  Actual Average (KMAF) Record (KMAF)
Temperature  
Mean Temperature 40 °F 43 °F  
Max Temperature 43 °F 57 °F 80 °F (2009)
Min Temperature 37 °F 30 °F 7 °F (1967)
Degree Days  
Heating Degree Days 25 22  
Month to date heating degree days 198  
Since 1 July heating degree days 1314  
Moisture  
Dew Point 39 °F    
Average Humidity 95    
Maximum Humidity 99    
Minimum Humidity 84    
Precipitation  
Precipitation 0.68 in 0.02 in 1.34 in (2013)
Month to date precipitation 0.13  
Year to date precipitation 0.13  
Snow  
Snow 0.00 in - - ()
Month to date snowfall  
Since 1 July snowfall  
Snow Depth -    
Sea Level Pressure  
Sea Level Pressure 30.09 in    
Wind  
Wind Speed 13 mph (NNE)    
Max Wind Speed 25 mph    
Max Gust Speed 32 mph    
Visibility 6 miles    
Events Rain    
T = Trace of Precipitation, MM = Missing Value Source: NWS Daily Summary

Daily Weather History Graph

Daily Weather History Graph

Search for Another Location

Airport or City:

Trip Planner

Search our weather history database for the weather conditions in past years. The results will help you decide how hot, cold, wet, or windy it might be!

Date:

Astronomy

Jan. 09, 2013 Rise Set
Actual Time 7:52 AM CST 6:02 PM CST
Civil Twilight 7:25 AM CST 6:29 PM CST
Nautical Twilight 6:55 AM CST 6:59 PM CST
Astronomical Twilight 6:25 AM CST 7:29 PM CST
Moon 5:33 AM CST (1/9) 4:06 PM CST (1/9)
Length of Visible Light 11h 04m
Length of Day
10h 10m
Waning Crescent, 6% of the Moon is Illuminated
Jan 9
Waning Crescent
Jan 11
New
Jan 18
First Quarter
Jan 26
Full
Feb 3
Last Quarter

Hourly Weather History & Observations

Time (CST) Temp. Windchill Dew Point Humidity Pressure Visibility Wind Dir Wind Speed Gust Speed Precip Events Conditions
12:15 AM 43.3 °F 38.6 °F 43.0 °F 99% 30.10 in 4.0 mi ENE 8.1 mph - N/A   Drizzle
12:35 AM 43.3 °F 38.1 °F 43.0 °F 99% 30.10 in 4.0 mi ENE 9.2 mph - N/A Rain Rain
12:55 AM 43.2 °F 37.9 °F 42.8 °F 99% 30.10 in 5.0 mi ENE 9.2 mph - N/A   Drizzle
1:15 AM 43.3 °F 38.1 °F 43.0 °F 99% 30.12 in 4.0 mi ENE 9.2 mph - N/A   Light Drizzle
1:35 AM 43.2 °F 37.0 °F 43.0 °F 99% 30.09 in 5.0 mi ENE 11.5 mph - N/A   Light Drizzle
1:55 AM 43.0 °F 35.7 °F 42.8 °F 99% 30.08 in 5.0 mi ENE 15.0 mph 20.7 mph N/A   Overcast
2:15 AM 42.8 °F 36.2 °F 42.6 °F 99% 30.07 in 4.0 mi NNE 12.7 mph - N/A   Overcast
2:35 AM 42.8 °F 36.2 °F 42.4 °F 99% 30.06 in 5.0 mi NNE 12.7 mph 19.6 mph N/A   Overcast
2:55 AM 43.0 °F 36.4 °F 42.8 °F 99% 30.09 in 7.0 mi NE 12.7 mph - N/A   Overcast
3:15 AM 42.8 °F 35.4 °F 42.4 °F 99% 30.10 in 7.0 mi NE 15.0 mph - N/A   Overcast
3:35 AM 42.8 °F 37.5 °F 42.1 °F 97% 30.11 in 7.0 mi NE 9.2 mph - N/A   Overcast
3:55 AM 42.8 °F 37.0 °F 42.1 °F 97% 30.10 in 7.0 mi NE 10.4 mph - N/A   Overcast
4:15 AM 42.4 °F 35.3 °F 41.9 °F 98% 30.10 in 7.0 mi NE 13.8 mph 21.9 mph N/A   Overcast
4:35 AM 42.4 °F 35.0 °F 41.5 °F 97% 30.10 in 7.0 mi NNE 15.0 mph 19.6 mph N/A   Overcast
4:55 AM 42.8 °F 34.8 °F 40.5 °F 91% 30.09 in 10.0 mi NNE 17.3 mph - N/A   Overcast
5:15 AM 42.1 °F 34.5 °F 39.7 °F 91% 30.11 in 10.0 mi NNE 15.0 mph 20.7 mph N/A   Overcast
5:35 AM 41.5 °F 35.0 °F 39.6 °F 93% 30.13 in 10.0 mi NNE 11.5 mph - N/A   Overcast
5:55 AM 41.0 °F 33.9 °F 39.2 °F 93% 30.13 in 7.0 mi North 12.7 mph 17.3 mph N/A   Overcast
6:15 AM 41.4 °F 34.3 °F 38.8 °F 91% 30.14 in 10.0 mi NNE 12.7 mph - N/A   Overcast
6:55 AM 41.2 °F 33.4 °F 38.5 °F 90% 30.15 in 10.0 mi NNE 15.0 mph 19.6 mph N/A   Overcast
7:15 AM 41.0 °F 33.9 °F 38.3 °F 90% 30.15 in 10.0 mi NNE 12.7 mph - N/A   Overcast
7:35 AM 40.5 °F 32.1 °F 38.3 °F 92% 30.16 in 7.0 mi NNE 16.1 mph 21.9 mph N/A   Overcast
7:55 AM 40.3 °F 32.6 °F 37.4 °F 89% 30.17 in 10.0 mi NNE 13.8 mph - N/A   Overcast
8:35 AM 40.1 °F 31.6 °F 35.6 °F 84% 30.20 in 10.0 mi NNE 16.1 mph 21.9 mph N/A   Overcast
8:55 AM 39.2 °F 30.8 °F 34.9 °F 84% 30.22 in 5.0 mi NNE 15.0 mph 20.7 mph N/A   Overcast
9:15 AM 38.5 °F 30.3 °F 35.6 °F 89% 30.23 in 7.0 mi North 13.8 mph 18.4 mph N/A   Light Drizzle
9:35 AM 38.7 °F 29.8 °F 35.2 °F 87% 30.24 in 5.0 mi NNE 16.1 mph 19.6 mph N/A   Drizzle
9:55 AM 37.9 °F 28.9 °F 36.5 °F 95% 30.24 in 4.0 mi NNE 16.1 mph 21.9 mph 0.01 in Rain Light Rain
10:15 AM 37.8 °F 28.0 °F 36.9 °F 97% 30.23 in 3.0 mi NNE 18.4 mph 21.9 mph N/A   Drizzle
10:35 AM 37.4 °F 27.8 °F 36.7 °F 97% 30.23 in 2.5 mi NNE 17.3 mph 21.9 mph 0.01 in Rain Light Rain
11:15 AM 37.8 °F 29.0 °F 36.9 °F 97% 30.21 in 4.0 mi NNE 15.0 mph 20.7 mph 0.01 in Rain Light Rain
11:35 AM 38.5 °F 29.2 °F 37.4 °F 96% 30.21 in 5.0 mi NNE 17.3 mph 23.0 mph 0.02 in Rain Light Rain
12:15 PM 38.8 °F 30.4 °F 36.9 °F 93% 30.17 in 7.0 mi North 15.0 mph 23.0 mph 0.01 in Rain Light Rain
12:35 PM 38.7 °F 29.8 °F 37.4 °F 95% 30.16 in 5.0 mi NNE 16.1 mph 20.7 mph 0.03 in Rain Rain
12:55 PM 38.8 °F 30.0 °F 37.0 °F 93% 30.15 in 5.0 mi NNE 16.1 mph 20.7 mph 0.05 in Rain Light Rain
1:15 PM 38.7 °F 29.5 °F 36.9 °F 93% 30.13 in 5.0 mi NNE 17.3 mph 23.0 mph 0.02 in Rain Rain
1:35 PM 38.7 °F 30.1 °F 36.7 °F 93% 30.13 in 5.0 mi NNE 15.0 mph 21.9 mph 0.04 in Rain Rain
1:55 PM 38.8 °F 29.7 °F 36.9 °F 93% 30.11 in 7.0 mi North 17.3 mph 24.2 mph 0.06 in Rain Light Rain
2:15 PM 38.8 °F 28.3 °F 36.9 °F 93% 30.09 in 7.0 mi North 23.0 mph 26.5 mph 0.01 in Rain Light Rain
2:35 PM 39.2 °F 29.6 °F 37.4 °F 93% 30.06 in 7.0 mi North 19.6 mph 27.6 mph 0.03 in Rain Rain
2:55 PM 39.4 °F 29.0 °F 37.4 °F 93% 30.05 in 5.0 mi North 23.0 mph 31.1 mph 0.04 in Rain Rain
3:15 PM 39.4 °F 28.7 °F 37.2 °F 92% 30.04 in 7.0 mi North 24.2 mph 28.8 mph 0.01 in Rain Rain
3:35 PM 39.6 °F 29.5 °F 37.4 °F 92% 30.04 in 7.0 mi North 21.9 mph 27.6 mph 0.02 in Rain Light Rain
3:55 PM 40.1 °F 29.7 °F 37.4 °F 90% 30.02 in 10.0 mi North 24.2 mph 29.9 mph 0.03 in Rain Light Rain
4:15 PM 40.1 °F 29.9 °F 37.6 °F 91% 30.00 in 7.0 mi North 23.0 mph 32.2 mph 0.01 in Rain Light Rain
4:35 PM 40.3 °F 30.4 °F 37.9 °F 91% 30.00 in 5.0 mi North 21.9 mph 27.6 mph 0.04 in Rain Rain
5:15 PM 40.3 °F 29.7 °F 38.1 °F 92% 29.98 in 5.0 mi North 25.3 mph 29.9 mph 0.02 in Rain Light Rain
5:35 PM 40.5 °F 30.4 °F 38.7 °F 93% 29.99 in 4.0 mi North 23.0 mph 32.2 mph 0.05 in Rain Rain
5:55 PM 40.5 °F 32.5 °F 39.0 °F 95% 30.00 in 5.0 mi NNE 15.0 mph 26.5 mph 0.12 in Rain Heavy Rain
6:15 PM 40.5 °F 33.6 °F 39.4 °F 96% 30.05 in 4.0 mi NE 11.5 mph 19.6 mph 0.13 in Rain Rain
6:35 PM 40.3 °F 33.4 °F 39.6 °F 97% 30.04 in 5.0 mi NE 11.5 mph - 0.21 in Rain Rain
6:55 PM 40.5 °F 34.1 °F 40.1 °F 99% 30.05 in 7.0 mi NE 10.4 mph 18.4 mph 0.24 in Rain Light Rain
7:15 PM 40.5 °F 34.1 °F 40.1 °F 99% 30.05 in 7.0 mi NE 10.4 mph 18.4 mph 0.02 in Rain Light Rain
7:35 PM 40.5 °F 33.2 °F 39.7 °F 97% 30.04 in 10.0 mi NE 12.7 mph - 0.04 in Rain Light Rain
7:55 PM 40.5 °F 33.6 °F 40.1 °F 99% 30.03 in 10.0 mi NE 11.5 mph - 0.05 in Rain Light Rain
8:35 PM 40.6 °F 33.0 °F 39.7 °F 97% 30.03 in 10.0 mi NNE 13.8 mph 21.9 mph 0.01 in Rain Light Rain
8:55 PM 40.5 °F 33.2 °F 39.7 °F 97% 30.03 in 7.0 mi NE 12.7 mph - 0.01 in   Drizzle
9:15 PM 40.5 °F 33.6 °F 40.1 °F 99% 30.03 in 5.0 mi NE 11.5 mph - N/A Rain Light Rain
9:35 PM 40.5 °F 33.6 °F 40.1 °F 99% 30.03 in 4.0 mi NNE 11.5 mph 18.4 mph N/A   Drizzle
9:55 PM 40.3 °F 34.9 °F 40.1 °F 99% 30.02 in 4.0 mi NE 8.1 mph - N/A   Drizzle
10:15 PM 40.1 °F 34.1 °F 39.7 °F 99% 30.02 in 5.0 mi NNE 9.2 mph - N/A   Light Drizzle
10:35 PM 40.1 °F 33.6 °F 39.9 °F 99% 30.02 in 5.0 mi NNE 10.4 mph - N/A   Light Drizzle
10:55 PM 40.3 °F 34.9 °F 40.1 °F 99% 30.02 in 7.0 mi NNE 8.1 mph - N/A   Overcast
11:15 PM 40.3 °F 35.5 °F 40.1 °F 99% 30.02 in 5.0 mi North 6.9 mph - N/A   Light Drizzle
11:35 PM 40.3 °F 34.9 °F 40.1 °F 99% 30.03 in 5.0 mi NNE 8.1 mph - N/A   Light Drizzle
11:55 PM 40.5 °F 35.1 °F 40.1 °F 99% 30.03 in 7.0 mi NNE 8.1 mph - N/A   Overcast